Location: Treviso
(45.6669°N, 12.2430°E)
Time: 01:13:05
(UTC+02:00)

ISS - Pass Details

Date: 06 July 2025
Orbit: 413 x 417 km, 51.6° (Epoch: 13 July)

Event Time Altitude Azimuth Distance (km) Brightness Sun altitude
Rises 02:50:30 0° 291° (WNW) 2,358 0.0 -18.3°
Reaches altitude 10° 02:52:46 10° 303° (WNW) 1,495 -0.9 -18.2°
Maximum altitude 02:55:46 29° 6° (N) 798 -1.7 -18.0°
Drops below altitude 10° 02:58:45 10° 68° (ENE) 1,496 -0.3 -17.8°
Sets 03:01:01 0° 80° (E) 2,360 0.6 -17.6°
